Weather History for Hamilton Airport, ON

Change the Weather History Date:

Tuesday, October 29, 2013

  Actual Average Record
Temperature  
Mean Temperature 36 °F -  
Max Temperature 43 °F 45 °F 55 °F (2000)
Min Temperature 28 °F 32 °F 28 °F (2000)
Degree Days  
Heating Degree Days 30    
Moisture  
Dew Point 29 °F    
Average Humidity 73    
Maximum Humidity 87    
Minimum Humidity 52    
Precipitation  
Precipitation 0.08 in 0.10 in - ()
Sea Level Pressure  
Sea Level Pressure 30.42 in    
Wind  
Wind Speed 7 mph ()    
Max Wind Speed 13 mph    
Max Gust Speed -    
Visibility 14.9 miles    
Events Rain    
Averages and records for this station are not official NWS values.
T = Trace of Precipitation, MM = Missing Value Source: Averaged Metar Reports

Daily Weather History Graph

Daily Weather History Graph

Search for Another Location

Airport:

Trip Planner

Search our weather history database for the weather conditions in past years. The results will help you decide how hot, cold, wet, or windy it might be!

Date:

Astronomy

Oct. 29, 2013 Rise Set
Actual Time 7:51 AM EDT 6:15 PM EDT
Civil Twilight 7:21 AM EDT 6:44 PM EDT
Nautical Twilight 6:48 AM EDT 7:18 PM EDT
Astronomical Twilight 6:15 AM EDT 7:51 PM EDT
Moon 2:31 AM EDT (10/29) 3:35 PM EDT (10/29)
Length of Visible Light 11h 23m
Length of Day
10h 24m
Waning Crescent, 25% of the Moon is Illuminated
Oct 29
Waning Crescent
Nov 3
New
Nov 10
First Quarter
Nov 17
Full
Nov 25
Last Quarter

Hourly Weather History & Observations

Time (EDT) Temp. Windchill Dew Point Humidity Pressure Visibility Wind Dir Wind Speed Gust Speed Precip Events Conditions
12:00 AM 32.0 °F 26.4 °F 21.2 °F 64% 30.41 in 15.0 mi NNE 5.8 mph - N/A   Partly Cloudy
1:00 AM 33.8 °F 26.4 °F 24.8 °F 70% 30.41 in 15.0 mi NNE 9.2 mph - N/A   Mostly Cloudy
2:00 AM 35 °F - 24 °F 52% 30.43 in 15 mi NNE 8.1 mph - -   Mostly Cloudy
2:00 AM 35.6 °F 28.6 °F 23.0 °F 60% 30.43 in 15.0 mi NNE 9.2 mph - N/A   Mostly Cloudy
3:00 AM 33.8 °F 27.0 °F 23.0 °F 65% 30.43 in 15.0 mi NNE 8.1 mph - N/A   Mostly Cloudy
4:00 AM 33.8 °F 27.0 °F 24.8 °F 70% 30.42 in 15.0 mi NNE 8.1 mph - N/A   Mostly Cloudy
5:00 AM 33.8 °F 28.6 °F 24.8 °F 70% 30.43 in 15.0 mi North 5.8 mph - N/A   Overcast
6:00 AM 33.8 °F 26.4 °F 26.6 °F 75% 30.45 in 15.0 mi NE 9.2 mph - N/A   Mostly Cloudy
7:00 AM 30.2 °F 22.6 °F 24.8 °F 80% 30.45 in 15.0 mi NE 8.1 mph - N/A   Partly Cloudy
8:00 AM 29 °F - 24 °F 74% 30.46 in 15 mi North 4.6 mph - -   Scattered Clouds
8:00 AM 28.4 °F 23.3 °F 23.0 °F 80% 30.46 in 15.0 mi North 4.6 mph - N/A   Partly Cloudy
9:00 AM 32.0 °F 25.6 °F 26.6 °F 80% 30.47 in 15.0 mi NNE 6.9 mph - N/A   Partly Cloudy
10:00 AM 35.6 °F 28.0 °F 28.4 °F 75% 30.49 in 12.0 mi NE 10.4 mph - N/A   Mostly Cloudy
11:00 AM 37.4 °F 29.3 °F 30.2 °F 75% 30.48 in 15.0 mi ENE 12.7 mph - N/A   Partly Cloudy
12:00 PM 41.0 °F 35.2 °F 32.0 °F 70% 30.48 in 15.0 mi ENE 9.2 mph - N/A   Scattered Clouds
1:00 PM 42.8 °F 37.0 °F 33.8 °F 70% 30.45 in 15.0 mi ENE 10.4 mph - N/A   Mostly Cloudy
2:00 PM 42 °F - 33 °F 59% 30.43 in 15 mi NE 8.1 mph - -   Scattered Clouds
2:00 PM 42.8 °F 38.0 °F 32.0 °F 66% 30.43 in 15.0 mi NNE 8.1 mph - N/A   Scattered Clouds
3:00 PM 41.0 °F 35.8 °F 32.0 °F 70% 30.40 in 15.0 mi NE 8.1 mph - N/A   Mostly Cloudy
4:00 PM 41.0 °F 35.2 °F 33.8 °F 76% 30.40 in 15.0 mi ENE 9.2 mph - N/A   Mostly Cloudy
5:00 PM 41.0 °F 35.2 °F 33.8 °F 76% 30.39 in 15.0 mi ENE 9.2 mph - N/A   Overcast
6:00 PM 39.2 °F 33.6 °F 33.8 °F 81% 30.38 in 15.0 mi ENE 8.1 mph - N/A   Overcast
7:00 PM 39.2 °F 35.0 °F 33.8 °F 81% 30.38 in 15.0 mi East 5.8 mph - N/A   Overcast
8:00 PM 39 °F - 33 °F 73% 30.38 in 15 mi ENE 3.5 mph - -   Overcast
8:00 PM 39.2 °F 37.0 °F 33.8 °F 81% 30.38 in 15.0 mi ENE 3.5 mph - N/A   Overcast
8:47 PM 39.2 °F 35.9 °F 33.8 °F 81% 30.37 in 15.0 mi ENE 4.6 mph - N/A Rain Light Rain Showers
9:00 PM 39.2 °F 35.9 °F 33.8 °F 81% 30.36 in 15.0 mi East 4.6 mph - N/A Rain Light Rain Showers
10:00 PM 39.2 °F 37.0 °F 33.8 °F 81% 30.34 in 15.0 mi ENE 3.5 mph - N/A Rain Light Rain Showers
11:00 PM 39.2 °F - 35.6 °F 87% 30.32 in 15.0 mi East 2.3 mph - N/A Rain Light Rain Showers